Orbital Elements at Epoch 2459000.5 (2020-May-31.0) TDB
Reference: JPL 16 (heliocentric ecliptic J2000)
Element | Value | Uncertainty (1-sigma) | Units |
e | .1468193341385948 | 4.5736e-08 | |
a | 2.68823546648635 | 1.0974e-08 | au |
q | 2.293550525289069 | 1.2202e-07 | au |
i | 5.852292775235102 | 5.422e-06 | deg |
node | 143.124505310331 | 4.821e-05 | deg |
peri | 174.1838000120415 | 5.1933e-05 | deg |
M | 9.165151035430616 | 1.8726e-05 | deg |
tp | 2458959.513907850962 (2020-Apr-20.01390785) | 8.3736e-05 | TDB |
period | 1609.901802666833 4.41 | 9.8583e-06 2.699e-08 | d yr |
n | .2236161232962489 | 1.3693e-09 | deg/d |
Q | 3.082920407683631 | 1.2586e-08 | au |
|
| | Orbit Determination Parameters
Additional Information
|